Location: ???? ?????????
(31.1304°N, 31.7111°E)
Time: 12:29:29
(UTC+00:00)

Cosmos 2227 Rocket - Pass Details

Date: 29 October 2020
Orbit: 839 x 845 km, 71.0° (Epoch: 26 November)

Event Time Altitude Azimuth Distance (km) Brightness Sun altitude
Rises 16:57:14 0° 332° (NNW) 3,401 5.7 -24.1°
Reaches altitude 10° 16:59:46 10° 327° (NNW) 2,463 5.0 -24.7°
Maximum altitude 17:05:08 46° 255° (WSW) 1,113 3.2 -25.8°
Drops below altitude 10° 17:10:30 10° 183° (S) 2,454 4.6 -27.0°
Sets 17:13:01 0° 177° (S) 3,386 5.3 -27.5°
